Location: Ernsee
(50.8780°N, 12.0389°E)
Time: 13:27:37
(UTC+00:00)

SL-8 Rocket - Pass Details

Date: 20 January 2020
Orbit: 956 x 991 km, 82.9° (Epoch: 17 February)

Event Time Altitude Azimuth Distance (km) Brightness Sun altitude
Rises 05:33:52 0° 347° (NNW) 3,684 6.7 -13.8°
Reaches altitude 10° 05:36:27 10° 342° (NNW) 2,727 6.0 -13.5°
Maximum altitude 05:42:27 51° 269° (W) 1,196 4.1 -12.5°
Drops below altitude 10° 05:48:21 10° 195° (SSW) 2,689 6.4 -11.7°
Sets 05:50:54 0° 190° (S) 3,628 7.1 -11.3°
